DW0868 Weather Reports


time (UTC)temp
F
wind
direction
speed
knots
gust
knots
rain 1hr
in
rain 24hr
in
rain mn
in
humidity
%
barometer
mb
20260507060040 53 241 1.7 0.0 0.00 0.00 0.00 92 1005.3
20260507054539 53 262 2.6 0.0 0.00 0.00 0.00 92 1005.4
20260507053038 53 277 3.5 0.0 0.00 0.00 0.00 92 1005.7
20260507051536 53 271 3.5 0.0 0.00 0.00 0.00 92 1005.9
20260507050035 53 267 4.3 0.0 0.00 0.00 0.00 92 1006.0
20260507044534 53 273 6.1 0.0 0.00 0.00 0.00 92 1006.0
20260507043041 53 283 7.0 0.0 0.00 0.00 0.00 92 1005.9
20260507041531 53 273 7.8 0.0 0.00 0.00 0.00 92 1005.9
20260507040029 53 254 8.7 0.0 0.00 0.00 0.00 92 1006.2
20260507034534 53 262 9.6 0.0 0.00 0.00 0.08 92 1006.1
20260507033029 54 259 9.6 0.0 0.00 0.00 0.08 92 1006.4
20260507031528 53 277 11.3 0.0 0.00 0.00 0.08 92 1006.1
20260507030028 53 254 11.3 0.0 0.00 0.00 0.08 92 1006.1
20260507024525 54 231 10.4 0.0 0.00 0.00 0.08 91 1006.1
20260507023022 54 242 10.4 0.0 0.00 0.00 0.08 91 1006.3
20260507021522 54 263 10.4 0.0 0.00 0.00 0.08 91 1006.5
20260507020027 54 286 10.4 0.0 0.00 0.00 0.08 91 1006.8
20260507014518 55 250 11.3 0.0 0.00 0.00 0.08 91 1006.8
20260507013022 55 240 9.6 0.0 0.00 0.00 0.08 91 1007.2
20260507011528 55 248 10.4 0.0 0.00 0.00 0.08 91 1007.2
20260507010017 55 240 11.3 0.0 0.00 0.00 0.08 91 1007.3
20260507004515 55 279 10.4 0.0 0.00 0.00 0.07 91 1007.3
20260507003014 55 292 9.6 0.0 0.00 0.00 0.07 91 1007.1
20260507001543 55 299 10.4 0.0 0.00 0.00 0.07 91 1007.1
20260507000016 55 269 11.3 0.0 0.00 0.00 0.07 91 1006.9
20260506234512 55 257 11.3 0.0 0.00 0.00 0.07 91 1006.9
20260506233011 55 239 10.4 0.0 0.00 0.00 0.06 91 1006.9
20260506231507 55 240 13.0 0.0 0.00 0.00 0.05 91 1006.9
20260506230005 55 321 12.2 0.0 0.00 0.00 0.04 90 1007.0
20260506224503 55 248 12.2 0.0 0.00 0.00 0.02 89 1007.2
20260506223001 55 227 12.2 0.0 0.00 0.00 0.02 88 1007.4
20260506221617 55 240 12.2 0.0 0.00 0.00 0.01 88 1007.6
20260506220101 56 265 11.3 0.0 0.00 0.00 0.01 87 1007.5
20260506214559 56 244 11.3 0.0 0.00 0.00 0.00 85 1007.5
20260506213103 56 269 10.4 0.0 0.00 0.00 0.00 86 1007.7
20260506211555 56 224 10.4 0.0 0.00 0.00 0.00 86 1007.9
20260506210058 56 261 11.3 0.0 0.00 0.00 0.00 85 1008.0
20260506204556 56 274 10.4 0.0 0.00 0.00 0.00 85 1008.1
20260506203110 56 265 12.2 0.0 0.00 0.00 0.00 85 1008.2
20260506201551 56 271 10.4 0.0 0.00 0.00 0.00 83 1008.3
20260506200055 57 281 10.4 0.0 0.00 0.00 0.00 83 1008.5
20260506194549 57 289 12.2 0.0 0.00 0.00 0.00 82 1008.6
20260506193051 58 292 12.2 0.0 0.00 0.00 0.00 82 1008.9
20260506191547 57 207 12.2 0.0 0.00 0.00 0.00 82 1008.9
20260506190050 58 229 11.3 0.0 0.00 0.00 0.00 81 1008.9
20260506184548 58 244 11.3 0.0 0.00 0.00 0.00 80 1009.0
20260506183045 59 236 11.3 0.0 0.00 0.00 0.00 80 1009.4
20260506181548 58 226 13.0 0.0 0.00 0.00 0.00 80 1009.7
20260506180039 59 234 13.0 0.0 0.00 0.00 0.00 79 1009.8
20260506174539 60 262 13.9 0.0 0.00 0.00 0.00 79 1010.2
20260506173043 60 238 12.2 0.0 0.00 0.00 0.00 79 1010.2
20260506171537 60 234 12.2 0.0 0.00 0.00 0.00 77 1010.3
20260506170038 59 254 12.2 0.0 0.00 0.00 0.00 80 1010.5
20260506164633 59 288 12.2 0.0 0.00 0.00 0.00 80 1010.7
20260506163034 59 212 10.4 0.0 0.00 0.00 0.00 79 1010.9
20260506161529 59 278 13.0 0.0 0.00 0.00 0.00 79 1011.1
20260506160030 60 231 12.2 0.0 0.00 0.00 0.00 78 1011.3
20260506154527 60 259 11.3 0.0 0.00 0.00 0.00 78 1011.4
20260506153026 59 254 12.2 0.0 0.00 0.00 0.00 78 1011.7
20260506151525 59 234 12.2 0.0 0.00 0.00 0.00 79 1011.8
20260506150026 60 248 13.0 0.0 0.00 0.00 0.00 78 1011.5
20260506144528 58 277 11.3 0.0 0.00 0.00 0.00 80 1011.7
20260506143025 58 239 12.2 0.0 0.00 0.00 0.00 81 1011.5
20260506141529 58 219 11.3 0.0 0.00 0.00 0.00 80 1011.4
20260506140022 59 277 12.2 0.0 0.00 0.00 0.00 79 1011.4
20260506134521 59 240 11.3 0.0 0.00 0.00 0.00 79 1011.9
20260506133019 59 241 11.3 0.0 0.00 0.00 0.00 81 1011.8
20260506131521 59 224 10.4 0.0 0.00 0.00 0.00 80 1011.5
20260506130018 59 277 9.6 0.0 0.00 0.00 0.00 81 1011.5
20260506124514 58 286 9.6 0.0 0.00 0.00 0.00 81 1011.7
20260506123014 58 249 8.7 0.0 0.00 0.00 0.00 83 1011.8
20260506121513 57 262 9.6 0.0 0.00 0.00 0.00 83 1011.8
20260506120015 56 284 10.4 0.0 0.00 0.00 0.00 84 1011.9
20260506114506 56 269 10.4 0.0 0.00 0.00 0.00 85 1012.0
20260506113007 56 242 10.4 0.0 0.00 0.00 0.00 85 1012.0
20260506111506 56 253 10.4 0.0 0.00 0.00 0.00 84 1011.9
20260506110006 56 259 8.7 0.0 0.00 0.00 0.00 85 1011.9
20260506104501 55 288 8.7 0.0 0.00 0.00 0.00 87 1012.1
20260506103100 55 287 7.8 0.0 0.00 0.00 0.00 87 1011.9
20260506101559 54 242 7.8 0.0 0.00 0.00 0.00 88 1011.9
20260506100112 54 302 8.7 0.0 0.00 0.00 0.00 88 1011.8
20260506094603 54 246 9.6 0.0 0.00 0.00 0.00 88 1011.9
20260506093101 54 275 8.7 0.0 0.00 0.00 0.00 88 1011.9
20260506091556 54 273 8.7 0.0 0.00 0.00 0.00 88 1012.0
20260506090059 54 270 9.6 0.0 0.00 0.00 0.00 88 1012.0
20260506084621 54 275 10.4 0.0 0.00 0.00 0.00 87 1012.0
20260506083055 55 232 9.6 0.0 0.00 0.00 0.00 87 1012.2
20260506081558 55 288 10.4 0.0 0.00 0.00 0.00 87 1012.2
20260506073052 54 257 10.4 0.0 0.00 0.00 0.00 88 1012.0
20260506071551 54 243 11.3 0.0 0.00 0.00 0.00 88 1012.0
20260506061546 55 273 10.4 0.0 0.00 0.00 0.00 86 1012.0